{"data":{"norad_id":61542,"epoch":"2026-05-24T10:55:07.223808Z","epoch_age_seconds":126116,"freshness":"FRESH","line1":"1 61542U 24184L   26144.45494472 -.00003592  00000+0 -24794-4 0  9993","line2":"2 61542  53.1575 223.0214 0000858  81.8727 278.2388 15.69719073 93372","mean_motion":15.69719073,"eccentricity":8.58e-5,"inclination_deg":53.1575,"raan_deg":223.0214,"arg_perigee_deg":81.8727,"mean_anomaly_deg":278.2388,"bstar":-2.4794e-5,"rev_number":9337,"period_min":91.736159977206,"perigee_km":359.12268060966,"apogee_km":360.27889357393,"semimajor_km":6737.8377870918,"source":"CELESTRAK","updated_at":"2026-05-25T13:38:19.399080Z"}}